Observations for Trim Patrick St
| Time | AQI | Temp °C | Hum % | Pres Pa | CO μg/m³ | H₂S μg/m³ | NO μg/m³ | NO₂ μg/m³ | O₃ μg/m³ | SO₂ μg/m³ | PM1 μg/m³ | PM2.5 μg/m³ | PM10 μg/m³ |
|---|---|---|---|---|---|---|---|---|---|---|---|---|---|
| Thursday 27 August 2026 | |||||||||||||
| 07:37 | 2 | 17.9 | 86 | 38,459 | 0.2 | 0 | 1.14 | 25.98 | 25.78 | 0 | 25.14 | 34.45 | 37.45 |
| 07:36 | 2 | 17.9 | 86 | 38,459 | 0.16 | 0 | 1.19 | 15.01 | 24.47 | 0 | 25.14 | 35.81 | 39.37 |
| 07:34 | 2 | 17.9 | 86 | 38,459 | 0.19 | 0.82 | 1.17 | 21.56 | 40.88 | 0 | 26 | 37.2 | 40.06 |
| 07:33 | 2 | 17.9 | 86 | 38,459 | 0.19 | 0.93 | 1.14 | 22.85 | 33.98 | 0 | 24.29 | 35.07 | 37.29 |
| 07:32 | 2 | 17.9 | 86 | 38,459 | 0.2 | 0.3 | 1.16 | 21.4 | 26.22 | 0 | 25.14 | 35.09 | 36.68 |
| 07:31 | 2 | 17.9 | 86 | 38,459 | 0.17 | 0 | 1.21 | 12.77 | 35.81 | 0 | 25.14 | 35.06 | 37.9 |
| 07:30 | 2 | 17.9 | 86 | 38,459 | 0.17 | 0 | 1.23 | 12.34 | 35.37 | 0 | 26 | 36.43 | 40.49 |
| 07:29 | 2 | 17.8 | 86 | 38,459 | 0.17 | 0 | 1.28 | 13.37 | 33.49 | 0 | 26 | 35.07 | 35.35 |
| 07:27 | 2 | 17.8 | 86 | 38,459 | 0.19 | 0 | 1.46 | 18.58 | 29.71 | 0 | 26 | 35.83 | 36.8 |
| 07:26 | 2 | 17.8 | 86 | 38,459 | 0.18 | 0 | 1.37 | 13.72 | 33.78 | 0 | 24.29 | 34.39 | 36 |
| 07:25 | 2 | 17.8 | 86 | 38,459 | 0.18 | 0 | 1.4 | 14.98 | 34.15 | 0 | 26 | 35.06 | 36.61 |
| 07:24 | 2 | 17.8 | 86 | 38,459 | 0.18 | 0 | 1.6 | 13.62 | 30.69 | 0 | 25.14 | 35.73 | 37.21 |
| 07:23 | 2 | 17.8 | 86 | 38,459 | 0.18 | 0 | 1.19 | 13.18 | 29.72 | 0 | 25.14 | 34.37 | 35.31 |
| 07:21 | 2 | 17.8 | 86 | 38,459 | 0.19 | 0 | 1.14 | 22.78 | 27.04 | 0 | 26 | 35.75 | 37.25 |
| 07:20 | 2 | 17.8 | 86 | 38,459 | 0.17 | 0.17 | 1.1 | 21.99 | 39.93 | 0 | 26 | 35.79 | 39.32 |
| 07:19 | 2 | 17.8 | 86 | 38,459 | 0.17 | 0 | 1.02 | 17.35 | 35.12 | 0 | 25.14 | 35.14 | 36.15 |
| 07:18 | 2 | 17.8 | 86 | 38,459 | 0.19 | 0 | 1.07 | 23.2 | 32.88 | 0 | 25.14 | 35.12 | 37.41 |
| 07:17 | 2 | 17.8 | 86 | 38,459 | 0.18 | 0 | 1.08 | 12.1 | 29.81 | 0 | 23.43 | 32.33 | 34.05 |
| 07:16 | 2 | 17.8 | 85 | 38,459 | 0.19 | 0 | 1.08 | 14.52 | 41.18 | 0 | 23.43 | 32.44 | 35.69 |
| 07:15 | 2 | 17.8 | 86 | 38,459 | 0.18 | 0 | 1.04 | 14.31 | 29.72 | 0 | 26 | 34.32 | 36.49 |